Regional Weather Roundup
Issued by NWS

Home | Current Version | Previous Version | Graphics & Text | Print | Product List | Glossary On
Versions: 1 2 3 4 5 6 7 8 9 10 11 12 13 14 15 16 17 18 19 20 21 22 23 24 25 26 27
000
ASUS45 KBOU 241807
RWRCO

WEATHER ROUNDUP FOR COLORADO
NATIONAL WEATHER SERVICE DENVER/BOULDER CO
1200 PM MDT SUN JUL 24 2016

NOTE: "FAIR" INDICATES FEW OR NO CLOUDS BELOW 12000 FEET WITH NO
SIGNIFICANT WEATHER AND/OR OBSTRUCTIONS TO VISIBILITY.

COZ001>005-013-030-031-241900-
...NORTHWEST COLORADO...

CITY           SKY/WX    TMP DP  RH WIND       PRES   REMARKS
CRAIG          FAIR      85  37  18 NE6       30.24R
HAYDEN         FAIR      77  37  24 NE8       30.27S
MEEKER         FAIR      84  44  24 VRB3      30.24F
MOUNT WERNER   NOT AVBL
STEAMBOAT SPGS FAIR      78  42  27 CALM      30.29F
WALDEN         FAIR      73  32  21 SW14      30.39S
$$

COZ006>008-011-241900-
...WEST CENTRAL VALLEYS...

CITY           SKY/WX    TMP DP  RH WIND       PRES   REMARKS
GRAND JUNCTION FAIR      92  43  18 SE9       30.10F
MONTROSE       FAIR      87  44  22 NW5       30.20F
EAGLE          SUNNY     82  37  20 CALM      30.28F
RIFLE          FAIR      87  43  21 VRB5      30.17F
DELTA          FAIR      92  38  15 SE3       30.16F
NUCLA          FAIR      90  36  14 N9        30.24F
$$

COZ017>023-064>068-241900-
...SOUTHWEST COLORADO...

CITY           SKY/WX    TMP DP  RH WIND       PRES   REMARKS
DURANGO        FAIR      86  39  19 VRB5      30.27F
CORTEZ         FAIR      91  42  18 SW7       30.21F
PAGOSA SPRINGS FAIR      84  28  13 SW7G16    30.35F
TELLURIDE      FAIR      76  37  24 W5        30.50S
WOLF CREEK PAS LGT RAIN  52  34  50 N15G21    30.75R
$$

COZ009-010-012-014-032>034-037-058>063-241900-
...CENTRAL COLORADO...

CITY           SKY/WX    TMP DP  RH WIND       PRES   REMARKS
ASPEN          FAIR      82  40  22 VRB6      30.34F
BUENA VISTA    FAIR      74  38  26 S7        30.38F
COPPER MTN     FAIR      64  21  19 N3        30.72F
BERTHOUD PASS  FAIR      54  41  62 MISG      30.75S
COTTONWOOD PAS FAIR      70  37  30 SE7       30.55F
GUNNISON       FAIR      75  39  27 SW5       30.40F
KREMMLING      FAIR      77  36  22 CALM      30.35F
LEADVILLE      FAIR      68  31  25 CALM      30.53F
MONARCH PASS   FAIR      63  32  31 MISG      30.83S
SALIDA         NOT AVBL
SUNLIGHT       FAIR      72  41  33 S3        30.64S
WILKERSON PASS FAIR      64  36  34 W3        30.69F
$$

COZ069>075-241900-
...SAN LUIS VALLEY/SANGRE DE CRISTO MOUNTAINS...

CITY           SKY/WX    TMP DP  RH WIND       PRES   REMARKS
ALAMOSA        FAIR      80  46  30 E6        30.35F
LA VETA PASS   FAIR      72  46  40 NE7       30.58S
SAGUACHE       FAIR      79  43  27 S5        30.38F
$$

COZ035-036-038>040-241900-
...NORTHERN COLORADO FRONT RANGE...

CITY           SKY/WX    TMP DP  RH WIND       PRES   REMARKS
DENVER INTL AP FAIR      88  44  21 VRB5      30.17F
DMNS CITY PARK   N/A     89  42  19 E3        30.15S
AURORA         MOSUNNY   89  39  17 SW8       30.18F
FRONT RANGE AP PTSUNNY   88  45  22 CALM      30.19S
ERIE MUNI ARPT FAIR      85  47  26 E6        30.15F
BOULDER MUN AP FAIR      82  50  32 NE5       30.17S
CENTENNIAL     FAIR      87  37  17 S5        30.20F
BROOMFIELD     MOSUNNY   86  46  25 NE6       30.19F
LONGMONT       FAIR      85  52  31 CALM      30.17F
$$

COZ041-046-047-076>085-087-088-241900-
...PIKES PEAK/PALMER DIVIDE AND SOUTHERN FOOTHILLS...

CITY           SKY/WX    TMP DP  RH WIND       PRES   REMARKS
COLO. SPRINGS  FAIR      85  48  27 E8        30.26F
A. F. ACADEMY  LGT RAIN  83  43  24 E6        30.25F
SCHRIEVER AFB  NOT AVBL
ELLICOTT       FAIR     N/A N/A N/A CALM      30.24F
FALCON         NOT AVBL
FORT CARSON    FAIR      86  49  27 SE9       30.22F
LIMON          FAIR      86  53  32 S8        30.21F
MONUMENT HILL  FAIR      73  46  38 S6        30.33R
TRINIDAD       NOT AVBL
$$

COZ042>045-048>051-090-091-241900-
...NORTHEAST COLORADO...

CITY           SKY/WX    TMP DP  RH WIND       PRES   REMARKS
GREELEY ARPT   FAIR      84  57  39 E15G21    30.16F
AKRON          FAIR      80  57  45 E24G31    30.18R
BURLINGTON     FAIR      87  58  37 E14G21    30.14F
WRAY           NOT AVBL
STERLING       FAIR      84  59  42 S14G21    30.15R
HOLYOKE        FAIR      81  54  39 W21       30.14F
FORT MORGAN    FAIR      82  57  43 E14       30.17F
$$

COZ086-089-092>099-241900-
...SOUTHEAST COLORADO...

CITY           SKY/WX    TMP DP  RH WIND       PRES   REMARKS
PUEBLO         FAIR      90  54  29 S8        30.13F
LA JUNTA       FAIR      83  60  45 SE5       30.12S
LAMAR          FAIR      87  65  47 NE6       30.07F
SPRINGFIELD      N/A     83  57  41 NE8       30.12F
$$




USA.gov is the U.S. government's official web portal to all federal, state and local government web resources and services.